STARLINK-11161, 60124

Orbit data source: Space-Track

STARLINK-11161, 60124 is a payload satellite owned by SpaceX/Seattle (US) in LEO that was launched on Mon, 24 Jun 2024 UTC via an FALCON 9 launch vehicle from the Air Force Western Test Range (AFWTR). Payload-class satellites include a variety of spacecraft equipped with specific instruments for various scientific and technological missions. These include communications satellites like Starlink; space stations such as the ISS; scientific satellites like the Hubble; Earth observation satellites from companies like Planet Labs, Umbra, and HawkEye 360; GPS; miniature CubeSats for education and research; and military/defense satellites.

Loading next visibility...
Identifier
60124, 2024-118M
Orbit
LEO
Country
Flag of USUS
Related business
Manufacturer
SpaceX/Seattle
Mission
Operational Commercial Communications
Bus & Motor
STARLINK V2MD, Unknown motor
Mass
960 kg wet, ~910 kg dry
Launch date (UTC)
2024-06-24 (2 years ago)
Launch vehicle
FALCON 9
Launch site
Air Force Western Test Range (AFWTR)
Object type
Payload
Rocket body
Debris
Shape & HBR
Box + 2 Pan, 18.1 m
Radar Cross Section
36.964 m², Large (>1 m²)

Expand to show TLE details & history
Last TLE update: 9 hours ago

TLE from 9 hours ago
0 STARLINK-11161
1 60124U 24118M   26126.91773511  .00000887  00000-0  12170-4 0  9998
2 60124  53.1602 294.5862 0000682 104.1363 255.9731 15.69714163107139
Epoch: 2026-05-06T22:01Z
TLE epoch observation values (Epoch: 2026-05-06T22:01:32.313Z)
Latitude
-0°
Longitude
99.43022°
Altitude
360.741 km
Speed
7.694 km/s
True Right ascension
19h 38m 20s
True Declination
0° 00' 00"
Sunlit
Object was in daylight at epoch
Visualization orbit readout
Latitude
Unknown
Longitude
Unknown
Altitude
Unknown
Speed
Unknown
Apparent Right ascension
Unknown
Apparent Declination
Unknown
Sunlit
N/A
Visualization observer readout
Local Sidereal Time
14:43:19
Azimuth
Unknown
Elevation
Unknown
Doppler factor
Unknown
Orbital elements
Apogee altitude
360.435 km
Perigee altitude
359.516 km
Semi-major axis
6,738.112 km
Eccentricity
0.00007
Inclination
53.1602°
RAAN
294.5862°
Arg. of periapsis
104.1363°
True anomaly
255.96552°
Mean anomaly
255.9731°
Eccentric anomaly
255.96931°
Mean motion
3.92406 °/min
Orbital period
91.74 mins
BSTAR
0.00001217
Loading maneuver chart data...
Computing Atmospheric mass density...
Loading historical data...
Loading historical data...
Loading historical data...
Loading historical data...
Loading historical data...
Loading historical data...
Loading historical data...

Documentation

Showing up to 5 results
|